Weather History for Houston, TX

Change the Weather History Date:

Tuesday, October 8, 2013

  Actual Average Record
Temperature  
Mean Temperature 67 °F 74 °F  
Max Temperature 81 °F 84 °F 96 °F (1962)
Min Temperature 53 °F 63 °F 42 °F (1952)
Degree Days  
Heating Degree Days 0 0  
Month to date heating degree days 0 0  
Since 1 July heating degree days 0 1  
Cooling Degree Days 2 9  
Month to date cooling degree days 83 78  
Year to date cooling degree days 3004 2903  
Growing Degree Days 19 (Base 50)    
Moisture  
Dew Point 52 °F    
Average Humidity 64    
Maximum Humidity 93    
Minimum Humidity 35    
Precipitation  
Precipitation 0.00 in 0.17 in 2.07 in (1909)
Month to date precipitation 0.33 1.33  
Year to date precipitation 26.62 37.32  
Sea Level Pressure  
Sea Level Pressure 30.06 in    
Wind  
Wind Speed 2 mph (ESE)    
Max Wind Speed 8 mph    
Max Gust Speed 13 mph    
Visibility 10 miles    
Events      
T = Trace of Precipitation, MM = Missing Value Source: NWS Daily Summary

Daily Weather History Graph

Daily Weather History Graph

Search for Another Location

Airport:

Trip Planner

Search our weather history database for the weather conditions in past years. The results will help you decide how hot, cold, wet, or windy it might be!

Date:

Astronomy

Oct. 08, 2013 Rise Set
Actual Time 7:18 AM CDT 6:58 PM CDT
Civil Twilight 6:54 AM CDT 7:21 PM CDT
Nautical Twilight 6:27 AM CDT 7:49 PM CDT
Astronomical Twilight 5:59 AM CDT 8:17 PM CDT
Moon 10:57 AM CDT (10/8) 9:52 PM CDT (10/8)
Length of Visible Light 12h 27m
Length of Day
11h 39m
Waxing Crescent, 16% of the Moon is Illuminated
Oct 8
Waxing Crescent
Oct 11
First Quarter
Oct 18
Full
Oct 26
Last Quarter
Nov 3
New

Hourly Weather History & Observations

Time (CDT) Temp. Dew Point Humidity Pressure Visibility Wind Dir Wind Speed Gust Speed Precip Events Conditions
12:53 AM 59.0 °F 51.1 °F 75% 30.08 in 10.0 mi Calm Calm - N/A   Clear
1:53 AM 59.0 °F 52.0 °F 78% 30.07 in 10.0 mi Calm Calm - N/A   Clear
2:53 AM 57.9 °F 52.0 °F 81% 30.06 in 10.0 mi Calm Calm - N/A   Clear
3:53 AM 57.0 °F 52.0 °F 83% 30.06 in 10.0 mi Calm Calm - N/A   Clear
4:53 AM 57.9 °F 51.1 °F 78% 30.06 in 10.0 mi Calm Calm - N/A   Clear
5:53 AM 57.9 °F 51.1 °F 78% 30.07 in 10.0 mi Calm Calm - N/A   Clear
6:53 AM 57.9 °F 52.0 °F 81% 30.07 in 10.0 mi Calm Calm - N/A   Clear
7:53 AM 60.1 °F 51.1 °F 72% 30.08 in 10.0 mi NNE 3.5 mph - N/A   Clear
8:53 AM 64.9 °F 53.1 °F 65% 30.10 in 10.0 mi ENE 3.5 mph - N/A   Clear
9:53 AM 69.1 °F 54.0 °F 58% 30.11 in 10.0 mi ENE 4.6 mph - N/A   Clear
10:53 AM 73.0 °F 55.9 °F 55% 30.12 in 10.0 mi ESE 6.9 mph - N/A   Clear
11:53 AM 75.9 °F 52.0 °F 43% 30.11 in 10.0 mi ESE 5.8 mph - N/A   Clear
12:53 PM 78.1 °F 50.0 °F 37% 30.09 in 10.0 mi Variable 3.5 mph - N/A   Clear
1:53 PM 80.1 °F 51.1 °F 36% 30.06 in 10.0 mi Variable 5.8 mph - N/A   Clear
2:53 PM 79.0 °F 48.0 °F 34% 30.04 in 10.0 mi Calm Calm - N/A   Clear
3:53 PM 80.1 °F 48.9 °F 34% 30.02 in 10.0 mi SE 4.6 mph - N/A   Partly Cloudy
4:53 PM 81.0 °F 48.9 °F 33% 30.01 in 10.0 mi Calm Calm - N/A   Clear
5:53 PM 79.0 °F 50.0 °F 36% 30.01 in 10.0 mi ESE 5.8 mph - N/A   Clear
6:53 PM 73.9 °F 52.0 °F 46% 30.01 in 10.0 mi SE 5.8 mph - N/A   Partly Cloudy
7:53 PM 71.1 °F 51.1 °F 49% 30.03 in 10.0 mi SSE 4.6 mph - N/A   Clear
8:53 PM 68.0 °F 55.0 °F 63% 30.04 in 10.0 mi SSE 4.6 mph - N/A   Clear
9:53 PM 66.0 °F 57.9 °F 75% 30.04 in 10.0 mi Calm Calm - N/A   Clear
10:53 PM 64.9 °F 57.9 °F 78% 30.04 in 10.0 mi Calm Calm - N/A   Clear
11:53 PM 63.0 °F 57.9 °F 84% 30.04 in 10.0 mi Calm Calm - N/A   Clear